Zurück zum Katalog

CZ-6A DEB

AktivPO
NORAD 54470·DEBRIS·🇨🇳 China

Gestartet Nov 11, 2022 von Taiyuan Satellite Launch Center

Loading…

Nächste Überflüge (nächste 24 Stunden)

TLE

AktuellSource: Space-Track

Epoche: Sep 13, 2026, 01:41 UTC

1 54470U 22151GW  26256.07043061  .00005144  00000-0  89391-3 0  9990
2 54470  98.6251 318.7432 0071953  39.8351 320.8102 14.66930844201357

Verfolge CZ-6A DEB in Echtzeit mit AllMySat

Download on the App Store